x

Southeast Papa - 600nm West Of Eureka, Ca (46006) Wave Buoy

2:50am - Sun 25th Sep 2016 All times are UTC.

  • Sig Wave height 7.2ft
  • Swell Direction
  • Peak Period 9s
  • Average Period 7s
  • Wind
    16mph, 20mph gusts
  • Sea Temp 69°f
  • Air Temp 69°f
  • Sea Pressure 1025mb

More Historic Weather Station data

Upgrade to MSW Pro to gain access to the past 30 days of data for over 8000 Wavebouys and Weather Stations around the globe.

Join Pro

Comparision Forecast

View Surf forecast
   
Sun 09/25 2:50am 7ft 9s 7s 16 20 mph 1025mb 69f 69f
2:40am  -   -   -  16 20 mph 1025mb 69f 69f
2:30am  -   -   -  16 20 mph 1025mb 69f 69f
2:20am  -   -   -  16 20 mph 1025mb 69f 69f
2:10am  -   -   -  16 20 mph 1025mb 69f 69f
2:00am  -   -   -  16 20 mph 1025mb 69f 69f
1:50am 7ft 17s 7s 16 18 mph 1025mb 69f 69f
1:40am  -   -   -  16 18 mph 1025mb 69f 69f
1:30am  -   -   -  16 18 mph 1025mb 69f 69f
1:20am  -   -   -  16 20 mph 1025mb 69f 69f
1:10am  -   -   -  16 20 mph 1024.8mb 69f 69f
1:00am  -   -   -  13 16 mph 1024.8mb 69f 70f
12:50am 7ft 8s 7s 13 18 mph 1024.7mb 69f 70f
12:40am  -   -   -  13 16 mph 1024.8mb 69f 70f
12:30am  -   -   -  13 18 mph 1024.8mb 69f 70f
12:20am  -   -   -  16 20 mph 1024.7mb 69f 70f
12:10am  -   -   -  16 20 mph 1024.7mb 69f 70f
12:00am  -   -   -  16 20 mph 1024.8mb 69f 70f
Sat 09/24 11:50pm 7ft 17s 7s 16 18 mph 1024.7mb 69f 70f
11:40pm  -   -   -  16 18 mph 1024.8mb 69f 70f
11:30pm  -   -   -  16 18 mph 1024.8mb 69f 70f
11:20pm  -   -   -  16 20 mph 1024.7mb 69f 70f
11:10pm  -   -   -  16 18 mph 1024.8mb 69f 70f
11:00pm  -   -   -  16 18 mph 1024.8mb 69f 70f
10:50pm 7ft 17s 7s 16 18 mph 1024.8mb 69f 70f
10:40pm  -   -   -  13 18 mph 1024.8mb 69f 70f
10:30pm  -   -   -  13 18 mph 1024.8mb 69f 70f
10:20pm  -   -   -  16 18 mph 1024.8mb 69f 70f
10:10pm  -   -   -  13 18 mph 1025mb 69f 70f
10:00pm  -   -   -  13 16 mph 1025mb 69f 70f
9:50pm 7ft 16s 7s 13 16 mph 1025.2mb 69f 70f
9:40pm  -   -   -  13 16 mph 1025.2mb 69f 70f
9:30pm  -   -   -  13 18 mph 1025.2mb 69f 70f
9:20pm  -   -   -  13 16 mph 1025.2mb 69f 70f
9:10pm  -   -   -  13 16 mph 1025.3mb 69f 70f
9:00pm  -   -   -  11 13 mph 1025.3mb 69f 70f
8:50pm 7ft 17s 7s 11 13 mph 1025.3mb 69f 70f
8:40pm  -   -   -  11 13 mph 1025.3mb 69f 70f
8:30pm  -   -   -  11 13 mph 1025.5mb 69f 70f
8:20pm  -   -   -  11 13 mph 1025.5mb 69f 70f
8:10pm  -   -   -  11 13 mph 1025.5mb 69f 70f
8:00pm  -   -   -  11 13 mph 1025.5mb 69f 70f
7:50pm 7ft 17s 7s 11 13 mph 1025.5mb 69f 70f
7:40pm  -   -   -  11 13 mph 1025.5mb 69f 70f
7:30pm  -   -   -  11 16 mph 1025.5mb 69f 70f
7:20pm  -   -   -  13 16 mph 1025.7mb 69f 70f
7:10pm  -   -   -  11 16 mph 1025.7mb 69f 70f
7:00pm  -   -   -  11 16 mph 1025.7mb 69f 70f
6:50pm 7ft 16s 7s 11 16 mph 1025.5mb 69f 70f
6:40pm  -   -   -  11 13 mph 1025.5mb 69f 70f
6:30pm  -   -   -  11 16 mph 1025.5mb 69f 70f
6:20pm  -   -   -  13 20 mph 1025.3mb 69f 70f
6:10pm  -   -   -  13 20 mph 1025.3mb 69f 70f
6:00pm  -   -   -  13 16 mph 1025.3mb 69f 70f
5:50pm 6.5ft 17s 7s 13 16 mph 1025.2mb 69f 70f
5:40pm  -   -   -  13 16 mph 1025.2mb 69f 70f
5:30pm  -   -   -  11 16 mph 1025mb 69f 70f
5:20pm  -   -   -  13 16 mph 1025mb 69f 70f
5:10pm  -   -   -  13 18 mph 1024.8mb 69f 70f
5:00pm  -   -   -  13 18 mph 1024.8mb 69f 70f
4:50pm 6.5ft 17s 6s 16 22 mph 1024.7mb 69f 70f
4:40pm  -   -   -  16 20 mph 1024.5mb 69f 70f
4:30pm  -   -   -  16 18 mph 1024.5mb 69f 70f
4:20pm  -   -   -  13 18 mph 1024.5mb 69f 70f
4:10pm  -   -   -  13 16 mph 1024.5mb 69f 70f
4:00pm  -   -   -  13 16 mph 1024.5mb 69f 70f
3:50pm 7ft 10s 7s 16 18 mph 1024.3mb 69f 70f
3:40pm  -   -   -  16 20 mph 1024.3mb 69f 70f
3:30pm  -   -   -  16 20 mph 1024.3mb 69f 70f
3:20pm  -   -   -  16 22 mph 1024.3mb 69f 70f
3:10pm  -   -   -  18 25 mph 1024.2mb 69f 70f
3:00pm  -   -   -  20 27 mph 1024mb 69f 69f
2:50pm 7ft 17s 7s 18 25 mph 1023.9mb 69f 69f
2:40pm  -   -   -  18 22 mph 1023.8mb 69f 70f
2:30pm  -   -   -  16 22 mph 1023.6mb 69f 70f
2:20pm  -   -   -  18 25 mph 1023.5mb 69f 69f
2:10pm  -   -   -  18 22 mph 1023.5mb 69f 69f
2:00pm  -   -   -  18 22 mph 1023.5mb 69f 69f
1:50pm 7ft 17s 7s 18 22 mph 1023.3mb 69f 69f
1:40pm  -   -   -  18 22 mph 1023.3mb 69f 69f
1:30pm  -   -   -  20 25 mph 1023.1mb 69f 70f
1:20pm  -   -   -  18 22 mph 1023mb 69f 70f
1:10pm  -   -   -  18 25 mph 1023mb 69f 70f
1:00pm  -   -   -  20 27 mph 1022.9mb 69f 70f
12:50pm 6.5ft 17s 7s 18 22 mph 1022.8mb 69f 70f
12:40pm  -   -   -  16 20 mph 1022.9mb 69f 70f
12:30pm  -   -   -  16 20 mph 1022.8mb 69f 70f
12:20pm  -   -   -  16 20 mph 1022.8mb 69f 70f
12:10pm  -   -   -  16 20 mph 1022.9mb 69f 70f
12:00pm  -   -   -  16 20 mph 1022.9mb 69f 70f
11:50am 6.5ft 17s 7s 16 20 mph 1022.9mb 69f 70f
11:40am  -   -   -  16 20 mph 1022.9mb 69f 70f
11:30am  -   -   -  16 20 mph 1022.9mb 69f 70f
11:20am  -   -   -  16 20 mph 1022.9mb 69f 70f
11:10am  -   -   -  16 20 mph 1023mb - 70f
11:00am  -   -   -  16 20 mph 1023mb 69f 70f
10:50am 6ft 16s 6s 16 20 mph 1023mb 69f 70f
10:40am 6ft  -  6s 18 20 mph 1023mb 69f 70f
10:30am  -   -   -  18 20 mph 1023mb 69f 70f
10:20am  -   -   -  16 22 mph 1023mb 69f 70f
10:10am  -   -   -  16 20 mph 1023mb 69f 70f
10:00am  -   -   -  16 20 mph 1023mb 69f 70f
9:50am 6.5ft 19s 7s 16 20 mph 1023mb 69f 70f
9:40am  -   -   -  16 20 mph 1023mb 69f 70f
9:30am  -   -   -  16 20 mph 1023.1mb 69f 70f
9:20am  -   -   -  16 20 mph 1023.1mb 69f 70f
9:10am  -   -   -  18 20 mph 1023mb 69f 70f
9:00am  -   -   -  16 22 mph 1023.1mb 69f 70f
8:40am  -   -   -  16 20 mph 1023.1mb 69f 70f
8:30am  -   -   -  16 20 mph 1023.1mb 69f 70f
8:20am  -   -   -  16 20 mph 1023.1mb 69f 70f
8:10am  -   -   -  16 18 mph 1023.3mb 69f 70f
8:00am  -   -   -  16 18 mph 1023.4mb 69f 70f
7:50am 7ft 10s 7s 13 16 mph 1023.1mb 69f 70f
7:40am  -   -   -  13 18 mph 1023.3mb 69f 70f
7:30am  -   -   -  13 18 mph 1023.4mb 69f 70f
7:20am  -   -   -  16 18 mph 1023.4mb 69f 70f
7:10am  -   -   -  16 20 mph 1023.3mb 69f 70f
7:00am  -   -   -  16 20 mph 1023.1mb 69f 70f
6:50am 6.5ft 10s 7s 16 20 mph 1023mb 69f 70f
6:40am 6.5ft  -  7s 16 22 mph 1023mb 69f 70f
6:30am  -   -   -  13 18 mph 1023mb 69f 70f
6:20am  -   -   -  16 18 mph 1023mb 69f 70f
6:10am  -   -   -  16 20 mph 1022.8mb 69f 70f
6:00am  -   -   -  16 18 mph 1022.8mb 69f 70f
5:50am 7.5ft 9s 7s 16 18 mph 1022.8mb 69f 70f
5:40am 7.5ft  -  7s 13 18 mph 1022.8mb 69f 70f
5:30am  -   -   -  13 18 mph 1022.6mb 69f 70f
5:20am  -   -   -  13 16 mph 1022.6mb 69f 70f
5:10am  -   -   -  13 18 mph 1022.6mb 69f 70f
5:00am  -   -   -  13 18 mph 1022.5mb 69f 70f
4:50am 8.5ft 10s 8s 13 18 mph 1022.5mb 69f 70f
4:40am  -   -   -  13 18 mph 1022.5mb 69f 70f
4:30am  -   -   -  13 18 mph 1022.3mb 69f 70f
4:20am  -   -   -  13 16 mph 1022.1mb 69f 70f
4:10am  -   -   -  13 18 mph 1022mb 69f 70f
4:00am  -   -   -  13 16 mph 1021.9mb 69f 70f
3:50am 7.5ft 10s 7s 11 13 mph 1021.9mb 69f 69f
3:40am  -   -   -  11 16 mph 1021.9mb 69f 69f
3:30am  -   -   -  11 13 mph 1021.8mb 69f 69f
3:20am  -   -   -  11 13 mph 1021.8mb 69f 69f
3:10am  -   -   -  11 13 mph 1021.6mb 69f 69f
3:00am  -   -   -  11 13 mph 1021.6mb 69f 69f
2:50am 8ft 10s 8s 11 13 mph 1021.6mb 69f 69f
2:40am  -   -   -  11 13 mph 1021.5mb 69f 68f
2:30am  -   -   -  11 13 mph 1021.5mb 69f 68f
2:20am  -   -   -  11 13 mph 1021.6mb 69f 68f
2:10am  -   -   -  11 13 mph 1021.6mb 69f 68f
2:00am  -   -   -  11 13 mph 1021.8mb 69f 68f
1:50am 8ft 11s 8s 11 16 mph 1021.8mb 69f 68f
1:40am  -   -   -  11 16 mph 1021.8mb 69f 68f
1:30am  -   -   -  11 16 mph 1021.6mb 69f 67f
1:20am  -   -   -  9 13 mph 1021.6mb 69f 67f
1:10am  -   -   -  9 13 mph 1021.6mb 69f 67f
1:00am  -   -   -  11 16 mph 1021.8mb 69f 67f
12:50am 10ft 10s 8s 11 16 mph 1021.8mb 69f 67f
12:40am  -   -   -  11 16 mph 1021.6mb - 68f
12:30am  -   -   -  11 16 mph 1021.5mb 69f 68f
12:20am  -   -   -  11 16 mph 1021.6mb 69f 68f
12:10am  -   -   -  9 16 mph 1021.6mb 69f 68f
12:00am  -   -   -  9 13 mph 1021.5mb 69f 68f
Fri 09/23 11:50pm 8ft 11s 7s 9 13 mph 1021.5mb 69f 68f
11:40pm  -   -   -  11 13 mph 1021.5mb 69f 68f
11:30pm  -   -   -  9 13 mph 1021.5mb 69f 68f
11:20pm  -   -   -  9 11 mph 1021.5mb 69f 68f
11:10pm  -   -   -  7 13 mph 1021.6mb 69f 68f
11:00pm  -   -   -  9 11 mph 1021.6mb 69f 68f
10:50pm 9ft 11s 8s 9 11 mph 1021.6mb 69f 68f
10:40pm 9ft  -  8s 9 13 mph 1021.5mb 69f 68f
10:30pm  -   -   -  9 13 mph 1021.6mb 69f 68f
10:20pm  -   -   -  9 13 mph 1021.6mb 69f 68f
10:10pm  -   -   -  9 13 mph 1021.6mb 69f 68f
10:00pm  -   -   -  9 13 mph 1021.8mb 69f 68f
9:50pm 8.5ft 11s 8s 7 11 mph 1022mb 69f 68f
9:40pm  -   -   -  7 11 mph 1022mb 69f 68f
9:30pm  -   -   -  7 11 mph 1022mb 69f 68f
9:20pm  -   -   -  7 11 mph 1022mb 69f 68f
9:10pm  -   -   -  7 9 mph 1022.3mb 69f 67f
9:00pm  -   -   -  4 9 mph 1022.4mb 69f 67f
8:50pm 8.5ft 11s 8s 4 9 mph 1022.5mb 69f 67f
8:40pm 8.5ft  -  8s 4 11 mph 1022.5mb 69f 68f
8:30pm  -   -   -  4 9 mph 1022.6mb 69f 67f
8:20pm  -   -   -  4 9 mph 1022.5mb 69f 67f
8:10pm  -   -   -  7 9 mph 1022.5mb 69f 67f
8:00pm  -   -   -  7 11 mph 1022.5mb 69f 67f
7:50pm 8.5ft 11s 8s 7 9 mph 1022.5mb 69f 67f
7:40pm  -   -   -  7 11 mph 1022.5mb 69f 67f
7:30pm  -   -   -  7 11 mph 1022.5mb 69f 67f
7:20pm  -   -   -  7 9 mph 1022.5mb 69f 67f
7:10pm  -   -   -  7 11 mph 1022.6mb 69f 67f
7:00pm  -   -   -  7 11 mph 1022.8mb 69f 67f
6:50pm 8ft  -  7s 7 9 mph 1022.6mb 69f 67f
6:40pm 8ft 11s 7s  -  mph - - -
6:30pm  -   -   -  7 11 mph 1022.3mb 69f 67f
6:20pm  -   -   -  7 11 mph 1022.1mb 69f 67f
6:10pm  -   -   -  7 11 mph 1022.1mb 69f 67f
6:00pm  -   -   -  9 11 mph 1022mb 68f 67f
5:50pm 8ft 11s 7s 7 11 mph 1022mb 68f 67f
5:40pm  -   -   -  7 11 mph 1022mb 68f 67f
5:30pm  -   -   -  9 13 mph 1022mb 68f 67f
5:20pm  -   -   -  9 13 mph 1021.9mb 68f 67f
5:10pm  -   -   -  9 11 mph 1021.6mb 68f 67f
5:00pm  -   -   -  9 13 mph 1021.5mb 68f 67f
4:50pm 9ft 11s 8s 9 13 mph 1021.5mb 68f 67f
4:40pm  -   -   -  9 13 mph 1021.3mb 68f 67f
4:30pm  -   -   -  11 16 mph 1021.3mb 68f 67f
4:20pm  -   -   -  11 13 mph 1021mb 68f 67f
4:10pm  -   -   -  11 13 mph 1021mb 68f 67f
4:00pm  -   -   -  9 16 mph 1020.9mb 68f 68f
3:50pm 9ft 10s 7s 9 13 mph 1020.8mb 68f 68f
3:40pm 9ft  -  7s 9 11 mph 1020.6mb 68f 67f
3:30pm  -   -   -  9 11 mph 1020.5mb 68f 67f
3:20pm  -   -   -  9 11 mph 1020.4mb 68f 67f
3:10pm  -   -   -  9 11 mph 1020.3mb 68f 67f
3:00pm  -   -   -  9 11 mph 1020.1mb 68f 67f
2:50pm 10ft 11s 8s 11 13 mph 1020.1mb 68f 67f
2:40pm  -   -   -  11 16 mph 1020mb 68f 67f
2:30pm  -   -   -  11 16 mph 1020mb 68f 66f
2:20pm  -   -   -  13 16 mph 1020mb 68f 66f
2:10pm  -   -   -  13 16 mph 1019.9mb 68f 66f
2:00pm  -   -   -  13 18 mph 1019.8mb 68f 66f
1:50pm 11ft 10s 8s 11 16 mph 1019.8mb 68f 67f
1:40pm  -   -   -  9 13 mph 1019.6mb 68f 67f
1:30pm  -   -   -  11 13 mph 1019.5mb 68f 66f
1:20pm  -   -   -  11 13 mph 1019.5mb 68f 66f
1:10pm  -   -   -  13 18 mph 1019.4mb 68f 66f
1:00pm  -   -   -  11 16 mph 1019.3mb 68f 66f
12:50pm 10.5ft 9s 7s 13 18 mph 1019mb 68f 66f
12:40pm  -   -   -  13 18 mph 1019mb 68f 66f
12:30pm  -   -   -  13 18 mph 1018.9mb 68f 67f
12:20pm  -   -   -  11 16 mph 1018.8mb 68f 67f
12:10pm  -   -   -  9 13 mph 1018.5mb 68f 67f
12:00pm  -   -   -  9 11 mph 1018.4mb 68f 68f
11:50am 13ft 10s 8s 7 11 mph 1018.4mb 68f 68f
11:40am 13ft  -  8s 7 11 mph 1018.4mb 68f 68f
11:30am  -   -   -  9 13 mph 1018.3mb 68f 68f
11:20am  -   -   -  9 13 mph 1018.3mb 68f 68f
11:10am  -   -   -  11 16 mph 1018.3mb 68f 68f
11:00am  -   -   -  18 27 mph 1018.3mb 68f 69f
10:50am 12.5ft 11s 7s 22 29 mph 1018.1mb 68f 69f
10:40am 12.5ft  -  7s 22 27 mph 1018.1mb 68f 69f
10:30am  -   -   -  22 29 mph 1018.3mb 68f 69f
10:20am  -   -   -  22 29 mph 1018.1mb 68f 69f
10:10am  -   -   -  22 31 mph 1018.1mb 68f 69f
10:00am  -   -   -  25 31 mph 1018mb 68f 69f
9:50am 12ft 11s 7s 22 31 mph 1018.1mb 68f 69f
9:40am 12ft  -  7s 25 31 mph 1018mb 68f 69f
9:30am  -   -   -  25 31 mph 1018mb 68f 69f
9:20am  -   -   -  25 31 mph 1018mb 68f 69f
9:10am  -   -   -  25 31 mph 1018.1mb 68f 69f
9:00am  -   -   -  25 31 mph 1018.1mb 68f 69f
8:50am 12ft 11s 7s 25 31 mph 1018mb 68f 69f
8:40am 12ft  -  7s 25 31 mph 1018mb 68f 69f
8:30am  -   -   -  25 34 mph 1018.1mb 68f 69f
8:20am  -   -   -  25 31 mph 1018.1mb 68f 69f
8:10am  -   -   -  25 31 mph 1018.1mb 68f 69f
8:00am  -   -   -  25 31 mph 1018mb 68f 69f
7:50am 12ft 10s 7s 25 31 mph 1018mb 68f 69f
7:40am  -   -   -  27 31 mph 1018mb 68f 70f
7:30am  -   -   -  27 34 mph 1018mb 68f 70f
7:20am  -   -   -  27 34 mph 1018mb 68f 70f
7:10am  -   -   -  27 34 mph 1018mb 68f 70f
7:00am  -   -   -  25 34 mph 1018mb 68f 70f
6:50am 11ft 9s 7s 25 34 mph 1017.9mb 68f 70f
6:40am  -   -   -  22 29 mph 1018mb 68f -
6:30am  -   -   -  25 31 mph 1018mb 68f 70f
6:20am  -   -   -  25 34 mph 1018mb 68f 70f
6:10am  -   -   -  25 34 mph 1017.9mb 68f 70f
6:00am  -   -   -  25 31 mph 1018mb 68f 70f
5:50am 11ft 9s 7s 25 31 mph 1017.8mb 68f 70f
5:40am  -   -   -  27 31 mph 1017.8mb 68f 70f
5:30am  -   -   -  25 31 mph 1017.5mb 68f 70f
5:20am  -   -   -  25 31 mph 1017.5mb 68f 70f
5:10am  -   -   -  25 34 mph 1017.4mb 68f 70f
5:00am  -   -   -  25 34 mph 1017.5mb 68f 70f
4:50am 11ft 8s 7s 25 31 mph 1017.5mb 68f 70f
4:40am  -   -   -  25 31 mph 1017.5mb 68f 70f
4:30am  -   -   -  27 34 mph 1017.4mb 68f 70f
4:20am  -   -   -  25 34 mph 1017.3mb 68f 70f
4:10am  -   -   -  25 29 mph 1017.3mb 68f 70f
4:00am  -   -   -  25 29 mph 1017.3mb 68f 70f
3:50am 11ft 8s 7s 25 29 mph 1017.3mb 69f 70f
3:40am  -   -   -  25 31 mph 1017.5mb 69f 70f
3:30am  -   -   -  27 34 mph 1017.4mb 69f 69f
3:20am  -   -   -  27 34 mph 1017.4mb 69f 69f
3:10am  -   -   -  25 34 mph 1017.5mb 69f 70f
3:00am  -   -   -  27 34 mph 1017.5mb 69f 70f
2:50am 10ft 8s 6s 25 34 mph 1017.5mb 69f 70f
2:40am  -   -   -  27 31 mph 1017.5mb 69f 70f
2:30am  -   -   -  27 34 mph 1017.6mb 69f 70f
2:20am  -   -   -  27 34 mph 1017.5mb 69f 70f
2:10am  -   -   -  25 34 mph 1017.5mb 69f 70f
2:00am  -   -   -  27 34 mph 1017.5mb 69f 70f
1:50am 10ft 8s 7s 25 31 mph 1017.5mb 69f 70f
1:40am 10ft  -  7s 25 31 mph 1017.5mb 69f 70f
1:30am  -   -   -  25 36 mph 1017.5mb 69f 69f
1:20am  -   -   -  27 34 mph 1017.8mb 69f 69f
1:10am  -   -   -  25 34 mph 1017.8mb 69f 69f
1:00am  -   -   -  27 31 mph 1017.8mb 69f 69f
12:50am 10ft 8s 7s 27 34 mph 1017.8mb 69f 69f
12:40am  -   -   -  25 31 mph 1018mb 69f 69f
12:30am  -   -   -  25 34 mph 1018mb 69f 69f
12:20am  -   -   -  25 31 mph 1018mb 69f 69f
12:10am  -   -   -  27 31 mph 1018.1mb 69f 69f
12:00am  -   -   -  27 34 mph 1018.4mb 69f 69f
Thu 09/22 11:50pm 9.5ft 8s 6s 25 34 mph 1018.4mb 69f 69f
11:40pm  -   -   -  25 34 mph 1018.4mb 69f 69f
11:30pm  -   -   -  25 31 mph 1018.5mb 69f 69f
11:20pm  -   -   -  27 34 mph 1018.8mb 69f 69f
11:10pm  -   -   -  25 31 mph 1018.8mb 69f 69f
11:00pm  -   -   -  25 31 mph 1018.9mb 69f 69f
10:50pm 9.5ft 8s 6s 25 31 mph 1019mb 69f 69f
10:40pm  -   -   -  27 34 mph 1019mb 69f 69f
10:30pm  -   -   -  25 31 mph 1019mb 69f 69f
10:20pm  -   -   -  27 34 mph 1019mb 69f 69f
10:10pm  -   -   -  25 31 mph 1019mb 69f 69f
10:00pm  -   -   -  25 31 mph 1019.5mb 69f 69f
9:50pm 9ft 7s 6s 27 31 mph 1019.5mb 69f 69f
9:40pm  -   -   -  25 31 mph 1019.5mb 69f 69f
9:30pm  -   -   -  27 31 mph 1019.8mb 69f 69f
9:20pm  -   -   -  25 31 mph 1019.9mb 69f 69f
9:10pm  -   -   -  27 31 mph 1020mb 69f 69f
9:00pm  -   -   -  25 31 mph 1020.1mb 69f 69f
8:50pm 8.5ft 8s 6s 25 31 mph 1020.3mb 69f 69f
8:40pm 8.5ft  -  6s 27 34 mph 1020.1mb 69f 69f
8:30pm  -   -   -  25 31 mph 1020.4mb 69f 69f
8:20pm  -   -   -  25 31 mph 1020.4mb 69f 69f
8:10pm  -   -   -  25 31 mph 1020.5mb 69f 69f
8:00pm  -   -   -  27 31 mph 1020.6mb 69f 69f
7:50pm 9ft 7s 6s 25 31 mph 1020.9mb 69f 69f
7:40pm  -   -   -  25 31 mph 1021mb 69f 69f
7:30pm  -   -   -  25 34 mph 1021mb 69f 69f
7:20pm  -   -   -  27 31 mph 1021mb 69f 69f
7:10pm  -   -   -  27 34 mph 1021.1mb 69f 69f
7:00pm  -   -   -  27 34 mph 1021mb 69f 68f
6:50pm 9ft 7s 6s 27 34 mph 1021.1mb 69f 68f
6:40pm 9ft  -  6s 27 31 mph 1021.1mb 69f 68f
6:30pm  -   -   -  25 31 mph 1021.1mb 69f 68f
6:20pm  -   -   -  27 31 mph 1021.1mb 69f 68f
6:10pm  -   -   -  27 34 mph 1021.3mb 69f 68f
6:00pm  -   -   -  25 34 mph 1021mb 69f 68f
5:50pm 8.5ft 7s 6s 25 34 mph 1021mb 69f 68f
5:40pm 8.5ft  -  6s 25 31 mph 1021mb 69f 68f
5:30pm  -   -   -  27 31 mph 1021mb 69f 68f
5:20pm  -   -   -  27 34 mph 1021mb 69f 68f
5:10pm  -   -   -  27 31 mph 1021.1mb 69f 68f
5:00pm  -   -   -  27 31 mph 1021.1mb 69f 68f
4:50pm 8ft 7s 6s 25 31 mph 1021.1mb 69f 68f
4:40pm  -   -   -  27 34 mph 1021mb 69f 68f
4:30pm  -   -   -  27 34 mph 1021.1mb 69f 68f
4:20pm  -   -   -  27 31 mph 1021.1mb 69f 68f
4:10pm  -   -   -  25 31 mph 1021mb 69f 68f
4:00pm  -   -   -  25 31 mph - - 68f
3:50pm 7.5ft 6s 6s 25 34 mph 1021mb 69f 68f
3:40pm  -   -   -  25 31 mph 1021mb 69f 68f
3:30pm  -   -   -  25 29 mph 1021.1mb 69f 68f
3:20pm  -   -   -  25 31 mph 1021.1mb 69f 68f
3:10pm  -   -   -  22 31 mph 1021.3mb 69f 68f
3:00pm  -   -   -  25 31 mph 1021mb 69f 68f
2:50pm 6.5ft 6s 5s 25 29 mph 1021.3mb 69f 68f
2:40pm  -   -   -  22 29 mph 1021.1mb 69f 68f
2:30pm  -   -   -  22 29 mph 1021.3mb 69f 68f
2:20pm  -   -   -  25 29 mph 1021.3mb 69f 68f
2:10pm  -   -   -  22 29 mph 1021.3mb 69f 68f
2:00pm  -   -   -  25 29 mph 1021.1mb 69f 68f
1:50pm 7ft 6s  -  22 27 mph 1021.3mb 69f 68f
1:40pm  -   -   -  22 29 mph 1021.3mb 69f 68f
1:30pm  -   -   -  22 27 mph 1021.4mb 69f 68f
1:20pm  -   -   -  22 27 mph 1021.4mb 69f 67f
1:10pm  -   -   -  25 29 mph 1021.4mb 69f 67f
1:00pm  -   -   -  22 29 mph 1021.4mb - 67f
12:50pm 5.5ft 6s 5s 25 31 mph 1021.5mb 69f 67f
12:40pm  -   -   -  25 31 mph 1021.5mb 69f 67f
12:30pm  -   -   -  22 29 mph 1021.5mb 69f 67f
12:20pm  -   -   -  22 29 mph 1021.5mb 69f 67f
12:10pm  -   -   -  22 27 mph 1021.8mb 69f 67f
12:00pm  -   -   -  22 27 mph 1021.9mb 69f 67f
11:50am 5ft 6s 5s 22 27 mph 1022mb 69f 67f
11:40am 5ft  -  5s 22 27 mph 1022mb 69f 67f
11:30am  -   -   -  22 27 mph 1022mb 69f 67f
11:20am  -   -   -  22 29 mph 1022.4mb 69f 67f
11:10am  -   -   -  22 25 mph 1022.5mb 69f 67f
11:00am  -   -   -  22 27 mph 1022.5mb 69f 67f
10:50am 4.5ft 5s 5s 22 27 mph 1022.6mb 69f 67f
10:40am  -   -   -  20 27 mph 1022.8mb 69f 67f
10:30am  -   -   -  20 25 mph 1023mb 69f 67f
10:20am  -   -   -  20 25 mph 1023mb 69f 67f
10:10am  -   -   -  18 25 mph 1023mb 69f 67f
10:00am  -   -   -  20 25 mph 1023.1mb 69f 67f
9:50am 4.5ft 5s 5s 20 25 mph 1023.4mb 69f 67f
9:40am  -   -   -  20 25 mph 1023.4mb 69f 68f
9:30am  -   -   -  18 25 mph 1023.5mb 69f 67f
9:20am  -   -   -  18 22 mph 1023.5mb 69f 67f
9:10am  -   -   -  18 22 mph 1023.5mb 69f 67f
9:00am  -   -   -  18 22 mph 1023.5mb 69f 67f
8:50am 4ft 5s 5s 18 22 mph 1023.5mb 69f 67f
8:40am 4ft  -  5s 18 22 mph 1023.5mb 69f 67f
8:30am  -   -   -  20 22 mph 1023.6mb 69f 67f
8:20am  -   -   -  20 25 mph 1023.6mb 69f 67f
8:10am  -   -   -  20 25 mph 1023.6mb 69f 68f
8:00am  -   -   -  20 25 mph 1023.6mb 69f 68f
7:50am 4ft 4s 5s 18 25 mph 1023.5mb 69f 68f
7:40am 4ft  -  5s 18 29 mph 1023.6mb 69f 67f
7:30am  -   -   -  20 27 mph 1023.8mb 69f 67f
7:20am  -   -   -  20 22 mph 1023.8mb 69f 67f
7:10am  -   -   -  18 22 mph 1024mb 69f 67f
7:00am  -   -   -  18 22 mph 1024mb 69f 67f
6:50am 3.5ft 8s 4s 18 22 mph 1024mb 69f 67f
6:40am  -   -   -  18 22 mph 1024.2mb 69f 67f
6:30am  -   -   -  18 22 mph 1024.3mb 69f 67f
6:20am  -   -   -  18 22 mph 1024.3mb 69f 67f
6:10am  -   -   -  18 22 mph 1024.5mb 69f 67f
6:00am  -   -   -  18 22 mph 1024.5mb 69f 67f
5:50am 3.5ft 15s 5s 16 20 mph 1024.7mb 69f 67f
5:40am  -   -   -  16 20 mph 1024.8mb 69f 67f
5:30am  -   -   -  16 20 mph 1024.8mb 69f 67f
5:20am  -   -   -  16 20 mph 1025mb 69f 67f
5:10am  -   -   -  16 20 mph 1024.8mb 69f 67f
5:00am  -   -   -  16 20 mph 1024.7mb 69f 67f
4:50am 3.5ft 8s 5s 16 20 mph 1024.5mb 69f 67f
4:40am  -   -   -  16 18 mph 1024.5mb 69f 67f
4:30am  -   -   -  16 18 mph 1024.5mb 69f 67f
4:20am  -   -   -  16 18 mph 1024.5mb 69f 67f
4:10am  -   -   -  13 16 mph 1024.7mb 69f 67f
4:00am  -   -   -  13 16 mph 1024.5mb 69f 67f
3:50am 3.5ft 9s 5s 13 18 mph 1024.7mb 69f 67f
3:40am  -   -   -  13 16 mph 1024.8mb 69f 67f
3:30am  -   -   -  13 18 mph 1024.8mb 69f 67f
3:20am  -   -   -  13 16 mph 1024.8mb 69f 66f
3:10am  -   -   -  13 18 mph 1024.8mb 69f 66f
3:00am  -   -   -  13 18 mph 1024.8mb 69f 66f
2:50am 3.5ft 8s 5s 13 18 mph 1024.8mb 69f 66f
2:40am  -   -   -  13 18 mph 1024.8mb 69f 66f
2:30am  -   -   -  13 18 mph 1024.8mb 69f 66f
2:20am  -   -   -  13 16 mph 1024.8mb 69f 66f
2:10am  -   -   -  13 18 mph 1024.8mb 69f 66f
2:00am  -   -   -  13 18 mph 1024.8mb 69f 66f
1:50am 3.5ft 9s 6s 13 20 mph 1024.8mb 69f 66f
1:40am  -   -   -  13 18 mph 1025mb 69f 66f
1:30am  -   -   -  13 18 mph 1025mb 69f 66f
1:20am  -   -   -  13 18 mph 1025mb 69f 67f
1:10am  -   -   -  13 18 mph 1025.3mb 69f 67f
1:00am  -   -   -  16 18 mph 1025.3mb 69f 66f
12:50am 3.5ft 7s 6s 13 18 mph 1025.5mb 69f 66f
12:40am  -   -   -  13 16 mph 1025.3mb 69f 66f
12:30am  -   -   -  13 16 mph 1025.5mb 69f 66f
12:20am  -   -   -  11 16 mph 1025.7mb 69f 66f
12:10am  -   -   -  11 13 mph 1025.7mb 69f 67f
12:00am  -   -   -  11 13 mph 1025.8mb 69f 67f
Wed 09/21 11:50pm 3.5ft 8s 7s 11 13 mph 1025.8mb 69f 67f
11:40pm  -   -   -  9 13 mph 1025.8mb 69f 66f
11:30pm  -   -   -  11 16 mph 1026mb 69f 66f
11:20pm  -   -   -  11 16 mph 1026.2mb 69f 66f
11:10pm  -   -   -  9 13 mph 1026.3mb 69f 66f
11:00pm  -   -   -  9 16 mph 1026.5mb 69f 66f
10:50pm 3.5ft 10s 7s 9 13 mph 1026.5mb 69f 66f
10:40pm  -   -   -  9 13 mph 1026.7mb 69f 66f
10:30pm  -   -   -  9 11 mph 1026.8mb 69f 66f
10:20pm  -   -   -  9 11 mph 1027mb 69f 66f
10:10pm  -   -   -  9 13 mph 1027.2mb 69f 66f
10:00pm  -   -   -  9 11 mph 1027.2mb 69f 66f
9:50pm 3.5ft 10s 7s 9 11 mph 1027.2mb 69f 66f
9:40pm  -   -   -  9 13 mph 1027mb 69f 66f
9:30pm  -   -   -  9 13 mph 1027.2mb 69f 66f
9:20pm  -   -   -  9 11 mph 1027.2mb 69f 66f
9:10pm  -   -   -  7 11 mph 1027.3mb 69f 66f
9:00pm  -   -   -  9 11 mph 1027.3mb 69f 65f
8:50pm 4ft 10s 7s 7 11 mph 1027.5mb 69f 66f
8:40pm  -   -   -  7 11 mph 1027.5mb 69f 65f
8:30pm  -   -   -  7 11 mph 1027.5mb 69f 66f
8:20pm  -   -   -  7 9 mph 1027.7mb 69f 66f
8:10pm  -   -   -  4 9 mph 1027.8mb 69f 65f
8:00pm  -   -   -  4 9 mph 1027.8mb 69f 65f
7:50pm 4.5ft 10s 7s 4 9 mph 1027.8mb 69f 65f
7:40pm  -   -   -  4 9 mph 1027.8mb 69f 65f
7:30pm  -   -   -  4 7 mph 1027.8mb 69f 65f
7:20pm  -   -   -  4 7 mph 1028mb 69f 66f
7:10pm  -   -   -  4 7 mph 1028mb 69f 66f
7:00pm  -   -   -  2 7 mph 1028.2mb 69f 66f
6:50pm 4.5ft 10s 7s 2 7 mph 1028.3mb 69f 66f
6:40pm  -   -   -  2 4 mph 1028.3mb 69f 66f
6:30pm  -   -   -   -  4 mph 1028.3mb 69f 66f
6:20pm  -   -   -   -  2 mph 1028.5mb 69f 66f
6:10pm  -   -   -   -  4 mph 1028.5mb 69f 66f
6:00pm  -   -   -   -  2 mph 1028.3mb 69f 67f
5:50pm 4.5ft 10s 7s  -  2 mph 1028.3mb 69f 66f
5:40pm  -   -   -   -  2 mph 1028.2mb 69f 66f
5:30pm  -   -   -   -  4 mph 1028mb 69f 66f
5:20pm  -   -   -  2 4 mph 1028mb 69f 65f
5:10pm  -   -   -  2 4 mph 1028mb 69f 65f
5:00pm  -   -   -  2 7 mph 1028mb 69f 65f
4:50pm 4.5ft 9s 7s 2 4 mph 1028mb - 65f
4:20pm  -   -   -  2 7 mph - - 65f
4:10pm  -   -   -  4 7 mph 1027.8mb - 65f
4:00pm  -   -   -  4 7 mph 1027.8mb 69f 65f
3:50pm 4.5ft 9s 7s 2 7 mph 1027.8mb 69f 65f
3:40pm 4.5ft  -  7s 4 7 mph 1027.5mb 69f 65f
3:30pm  -   -   -  2 7 mph 1027.5mb 69f 65f
3:20pm  -   -   -  2 4 mph 1027.5mb 69f 64f
3:10pm  -   -   -  2 4 mph 1027.5mb 69f 64f
3:00pm  -   -   -  2 4 mph 1027.5mb 69f 64f
2:50pm 5ft 10s 7s 2 4 mph 1027.5mb 69f 64f
2:40pm  -   -   -  4 7 mph 1027.5mb 69f 64f
2:30pm  -   -   -  2 4 mph 1027.5mb 69f 64f
2:20pm  -   -   -  4 7 mph 1027.5mb 69f 64f
2:10pm  -   -   -  4 7 mph 1027.5mb 69f 64f
2:00pm  -   -   -  4 9 mph 1027.5mb 69f 64f
1:50pm 4.5ft 10s 7s 4 7 mph 1027.5mb 69f 64f
1:40pm  -   -   -  4 7 mph 1027.3mb 69f 64f
1:30pm  -   -   -  4 9 mph 1027.3mb 69f 64f
1:20pm  -   -   -  4 7 mph 1027.3mb 69f 65f
1:10pm  -   -   -  4 7 mph 1027.3mb 69f 64f
1:00pm  -   -   -  4 7 mph 1027.3mb 69f 64f
12:50pm 5ft 9s 7s 4 9 mph 1027.3mb 69f 64f
12:40pm  -   -   -  4 9 mph 1027.3mb 69f 64f
12:30pm  -   -   -  4 7 mph 1027.5mb 69f 64f
12:20pm  -   -   -  2 7 mph 1027.5mb 69f 64f
12:10pm  -   -   -  4 7 mph 1027.3mb 69f 64f
12:00pm  -   -   -  4 7 mph 1027.5mb 69f 64f
11:50am 4.5ft 10s 7s 4 7 mph 1027.3mb 69f 64f
11:40am  -   -   -  2 4 mph 1027.3mb 69f 64f
11:30am  -   -   -  4 7 mph 1027.5mb 69f 64f
11:20am  -   -   -  4 7 mph 1027.5mb 69f 64f
11:10am  -   -   -  4 7 mph 1027.5mb 69f 64f
11:00am  -   -   -  4 7 mph 1027.7mb 69f 65f
10:50am 5ft 10s 7s 2 4 mph 1027.8mb 69f 64f
10:40am 5ft  -  7s 2 7 mph 1027.8mb 69f 64f
10:30am  -   -   -  2 4 mph 1027.7mb 69f 64f
10:20am  -   -   -  2 4 mph 1027.7mb 69f 64f
10:10am  -   -   -   -  4 mph 1027.7mb 69f 64f
10:00am  -   -   -  4 7 mph 1027.8mb 69f 65f
9:50am 4.5ft 10s 7s 2 4 mph 1028mb 69f 64f
9:40am  -   -   -  2 7 mph 1027.8mb 69f 64f
9:30am  -   -   -  2 7 mph 1028mb 69f 65f
9:20am  -   -   -  2 7 mph 1028mb 69f 64f
9:10am  -   -   -  2 4 mph 1028mb 69f 65f
9:00am  -   -   -  2 7 mph 1028mb 69f 65f
8:50am 4.5ft 10s 7s 4 7 mph 1028mb 69f 65f
8:40am  -   -   -  2 4 mph 1028mb 69f 65f
8:30am  -   -   -  4 7 mph 1028.2mb 69f 65f
8:20am  -   -   -  4 7 mph 1028.2mb 69f 65f
8:10am  -   -   -   -  7 mph 1028.2mb 69f 65f
8:00am  -   -   -  2 4 mph 1028.3mb 69f 65f
7:50am 5ft 11s 7s 2 4 mph 1028.3mb 69f 65f
7:40am  -   -   -  2 7 mph 1028.3mb 69f 65f
7:30am  -   -   -  2 4 mph 1028.3mb 69f 65f
7:20am  -   -   -  2 4 mph 1028.5mb 69f 65f
7:10am  -   -   -  4 7 mph 1028.5mb 69f 65f
7:00am  -   -   -  2 4 mph 1028.5mb 69f 65f
6:50am 5ft 11s 7s 4 7 mph 1028.5mb 69f 65f
6:40am 5ft  -  7s 4 7 mph 1028.5mb 69f 65f
6:30am  -   -   -  4 7 mph 1028.7mb 69f 65f
6:20am  -   -   -  4 11 mph 1028.7mb 69f 65f
6:10am  -   -   -  7 9 mph 1028.5mb 69f 65f
6:00am  -   -   -  4 9 mph 1028.7mb 69f 65f
5:50am 5ft 10s 7s 2 7 mph 1028.8mb 69f 65f
5:40am  -   -   -  4 7 mph 1028.7mb 69f 65f
5:30am  -   -   -  4 7 mph 1028.7mb 69f 65f
5:20am  -   -   -  4 9 mph 1028.5mb 69f 65f
5:10am  -   -   -  4 9 mph 1028.5mb 69f 65f
5:00am  -   -   -  4 7 mph 1028.5mb 69f 65f
4:50am 6ft 11s 8s 4 9 mph 1028.5mb 69f 65f
4:40am  -   -   -  7 9 mph 1028.3mb 69f 65f
4:30am  -   -   -  7 9 mph 1028.3mb 69f 65f
4:20am  -   -   -  7 9 mph 1028.3mb 69f 65f
4:10am  -   -   -  7 9 mph 1028.2mb 69f 65f
4:00am  -   -   -  4 7 mph 1028mb 69f 65f